Powrót do katalogu

CZ-4C DEB

AktywnyLEO
NORAD 43420·DEBRIS·🇨🇳 China

Wystrzelony Dec 10, 2014 z Jiuquan Satellite Launch Center

Loading…

Następne Przeloty (najbliższe 24 godziny)

TLE

ŚwieżeSource: Space-Track

Epoka: Sep 13, 2026, 09:51 UTC

1 43420U 14080J   26256.41067047  .00000964  00000-0  99697-3 0  9998
2 43420  63.3848  42.0197 0370580  12.0832 348.8792 13.54482821566960

Śledź CZ-4C DEB w czasie rzeczywistym z AllMySat

Download on the App Store